Sigfox identifier Datetime Temperature Humidity SNR
0038AE14 2018-10-09 09:12:37 21 40 17.1
0038AE14 2018-10-09 08:06:19 21 39 17.1
0038AE14 2018-10-09 07:00:01 21 39 17.1
0038AE14 2018-10-09 05:53:43 21 39 17.1
0038AE14 2018-10-09 01:28:29 20.9 38 17
0038AE14 2018-10-08 23:15:53 21 38 17
0038AE14 2018-10-08 22:09:31 21 38 16.8
0038AE14 2018-10-08 19:56:56 21 37 16.8
0038AE14 2018-10-08 18:50:38 21 37 16.8
0038AE14 2018-10-08 17:44:22 21 37 16.8
0038AE14 2018-10-08 16:38:03 21 37 16.8
0038AE14 2018-10-08 15:31:46 20.9 37 16.8
0038AE14 2018-10-08 14:25:28 20.7 37 16.8
0038AE14 2018-10-08 13:19:12 20.7 37 16.7
0038AE14 2018-10-08 12:12:53 20.7 38 8.4
0038AE14 2018-10-08 11:06:38 20.5 38 8.1
0038AE14 2018-10-08 08:54:03 20.7 38 8.1
0038AE14 2018-10-08 07:47:48 20.7 38 8.2
0038AE14 2018-10-08 06:41:25 20.7 38 8.3
0038AE14 2018-10-08 05:35:11 20.7 38 8.3
0038AE14 2018-10-08 04:28:52 20.7 38 8.3
0038AE14 2018-10-08 02:16:16 20.7 38 8.8
0038AE14 2018-10-07 18:32:09 20.9 39 9.1
0038AE14 2018-10-07 17:25:46 20.9 39 9.8
0038AE14 2018-10-07 14:06:45 20.9 39 10
0038AE14 2018-10-07 13:00:26 21 39 10
0038AE14 2018-10-07 11:54:05 21 39 10.4
0038AE14 2018-10-07 10:47:42 21 39 10.5
0038AE14 2018-10-07 08:34:59 21 39 10.7
0038AE14 2018-10-07 05:15:55 20.9 39 11.2
0038AE14 2018-10-07 04:09:35 21 39 11.2
0038AE14 2018-10-06 23:44:20 21.1 39 11.7
0038AE14 2018-10-06 21:31:48 21.2 39 11.8
0038AE14 2018-10-06 19:19:12 21.2 39 11.9
0038AE14 2018-10-06 17:06:38 21.2 39 12.3
0038AE14 2018-10-06 16:00:18 21.2 40 12.5
0038AE14 2018-10-06 13:47:42 21.2 40 12.9
0038AE14 2018-10-06 12:41:21 21.2 40 13.5
0038AE14 2018-10-06 11:34:59 21.2 40 14
0038AE14 2018-10-06 08:16:04 21.2 40 14.2
0038AE14 2018-10-05 23:25:31 21.4 40 14.6
0038AE14 2018-10-05 19:00:04 21.4 40 15.4
0038AE14 2018-10-05 16:47:22 21.4 39 16.1
0038AE14 2018-10-05 15:41:04 21.4 39 16.7
0038AE14 2018-10-05 14:34:49 21.4 39 16.8
0038AE14 2018-10-05 13:28:32 21.4 38 17.6
0038AE14 2018-10-05 12:22:15 21.4 38 17.6
0038AE14 2018-10-05 11:16:00 21.2 34 18.5
0038AE14 2018-10-05 10:09:41 21.1 33 18.7
0038AE14 2018-10-05 07:57:06 21 31 18.9
0038AE14 2018-10-05 06:50:50 20.9 31 19.4
0038AE14 2018-10-05 05:44:34 20.9 30 19.8
0038AE14 2018-10-05 04:38:12 20.9 30 20
0038AE14 2018-10-05 03:31:56 21 30 20.3
0038AE14 2018-10-05 02:25:39 21 31 20.3
0038AE14 2018-10-05 01:19:21 21 31 20.3
0038AE14 2018-10-05 00:13:05 21 31 20.5
0038AE14 2018-10-04 22:00:30 21 31 20.8
0038AE14 2018-10-04 20:54:11 21 31 21.7
0038AE14 2018-10-04 19:47:53 21 31 21.7
0038AE14 2018-10-04 18:41:34 21 31 21.6
0038AE14 2018-10-04 17:35:17 21 31 21.6
0038AE14 2018-10-04 16:28:56 21 31 21.5
0038AE14 2018-10-04 15:22:39 21 32 21.7
0038AE14 2018-10-04 14:16:20 20.9 32 21.7
0038AE14 2018-10-04 13:10:02 20.7 32 21.6
0038AE14 2018-10-04 12:03:39 20.7 33 21.5
0038AE14 2018-10-04 10:57:22 20.6 33 21.4
0038AE14 2018-10-04 09:50:57 20.5 34 21.3
0038AE14 2018-10-04 08:44:37 20.5 35 21.8
0038AE14 2018-10-04 07:38:15 20.5 36 21.7
0038AE14 2018-10-04 06:31:56 20.5 37 21.9
0038AE14 2018-10-04 05:25:36 20.5 37 21.6
0038AE14 2018-10-04 04:19:18 20.5 38 21.6
0038AE14 2018-10-04 03:12:59 20.5 38 21.9
0038AE14 2018-10-04 02:06:39 20.5 39 22
0038AE14 2018-10-04 01:00:21 20.6 39 22.1
0038AE14 2018-10-03 23:54:00 20.7 39 22.4
0038AE14 2018-10-03 22:47:39 20.7 40 22.5
0038AE14 2018-10-03 21:41:20 20.7 40 22.8
0038AE14 2018-10-03 20:35:02 20.7 40 22.8
0038AE14 2018-10-03 19:28:45 20.7 41 22.9
0038AE14 2018-10-03 18:22:27 20.7 41 22.9
0038AE14 2018-10-03 17:16:07 20.9 42 22.3
0038AE14 2018-10-03 16:09:49 20.9 41 22.5
0038AE14 2018-10-03 15:03:29 20.9 41 22.7
0038AE14 2018-10-03 13:57:12 20.9 41 22.9
0038AE14 2018-10-03 12:51:00 20.7 40 23.1
0038AE14 2018-10-03 11:44:39 20.8 40 23.1
0038AE14 2018-10-03 10:38:22 20.7 41 23.3
0038AE14 2018-10-03 09:32:05 20.5 42 23.6
0038AE14 2018-10-03 08:25:48 20.3 38 23.8
0038AE14 2018-10-03 07:19:30 20.5 39 24
0038AE14 2018-10-03 06:13:12 20.5 40 24.2
0038AE14 2018-10-03 05:06:53 20.5 40 24
0038AE14 2018-10-03 04:00:34 20.5 40 24.1
0038AE14 2018-10-03 02:54:16 20.6 41 24.2
0038AE14 2018-10-03 01:47:59 20.6 41 24.6
0038AE14 2018-10-03 00:41:44 20.7 41 24.9
0038AE14 2018-10-02 23:35:29 20.7 41 24.8
0038AE14 2018-10-02 22:29:13 20.7 40 24.7
0038AE14 2018-10-02 21:22:57 20.7 40 24.6
0038AE14 2018-10-02 20:16:37 20.7 40 23.5
0038AE14 2018-10-02 19:10:18 20.7 40 23.5
0038AE14 2018-10-02 18:04:01 20.7 39 21.2
0038AE14 2018-10-02 16:57:43 20.5 54 0